This is the latest recevied weather packets stored in our database for station/object KI5RAB. If no packets are shown the sender has not sent any weather packets the latest 10 day(s).
| Time | Temp. | Humidity | Pressure | Rain* | Wind** | Luminosity | Snow |
|---|---|---|---|---|---|---|---|
| 1777650918 | 17.22° C | 97% | 1014 hPa | 0 mm | - | 265 W/m² | - |
| 1777650615 | 16.67° C | 97% | 1014.1 hPa | 0 mm | - | 423 W/m² | - |
| 1777650009 | 16.67° C | 97% | 1014.3 hPa | 0 mm | - | 205 W/m² | - |
| 1777649707 | 16.67° C | 98% | 1014.1 hPa | 0 mm | - | 329 W/m² | - |
| 1777649402 | 16.67° C | 98% | 1014.3 hPa | 0 mm | - | 305 W/m² | - |
| 1777649099 | 16.11° C | 98% | 1014 hPa | 0 mm | - | 600 W/m² | - |
| 1777648796 | 16.11° C | 98% | 1013.7 hPa | 0 mm | - | 350 W/m² | - |
| 1777648488 | 16.11° C | 98% | 1014 hPa | 1.78 mm | - | 260 W/m² | - |
| 1777648185 | 15.56° C | 98% | 1014 hPa | 4.83 mm | - | 355 W/m² | - |
| 1777647880 | 15.56° C | 98% | 1014.5 hPa | 3.05 mm | - | 238 W/m² | - |
| 1777647577 | 15.56° C | 98% | 1016 hPa | 0 mm | - | 62 W/m² | - |
| 1777647273 | 15.56° C | 98% | 1016.5 hPa | 0 mm | - | 18 W/m² | - |
| 1777646362 | 15.56° C | 98% | 1015 hPa | 0 mm | - | 28 W/m² | - |
| 1777646059 | 15.56° C | 98% | 1014.5 hPa | 0 mm | - | 41 W/m² | - |
| 1777645756 | 15.56° C | 98% | 1014.4 hPa | 0 mm | - | 50 W/m² | - |
| 1777645453 | 15.56° C | 98% | 1014.8 hPa | 0 mm | - | 39 W/m² | - |
| 1777645148 | 15.56° C | 98% | 1014.6 hPa | 0 mm | - | 30 W/m² | - |
| 1777644845 | 15.56° C | 98% | 1014.8 hPa | 0 mm | - | 22 W/m² | - |
| 1777644543 | 15.56° C | 98% | 1014.7 hPa | 0 mm | - | 15 W/m² | - |
| 1777644239 | 15.56° C | 98% | 1015.1 hPa | 0 mm | - | 15 W/m² | - |
| 1777643935 | 15.56° C | 98% | 1015.4 hPa | 0 mm | - | 15 W/m² | - |
| 1777643633 | 15.56° C | 98% | 1015.1 hPa | 1.78 mm | - | 19 W/m² | - |
| 1777643026 | 15.56° C | 98% | 1015.2 hPa | 0 mm | - | 33 W/m² | - |
| 1777642723 | 15.56° C | 98% | 1015.6 hPa | 0 mm | - | 36 W/m² | - |
| 1777642420 | 15.56° C | 98% | 1016.4 hPa | 3.05 mm | - | 22 W/m² | - |
* Rain latest hour (hover to see other rain measurements)
** Current wind speed in m/s (hover to see current wind gust speed)